Wink, TX

8:47 AM CDT on July 21, 2017 (GMT -0500)
Winkler County

Weather History for KINK - April, 2014

Change the Weather History Date:

Thursday, April 24, 2014

  Actual Average Record
Temperature  
Mean Temperature 70 °F -  
Max Temperature 84 °F 84 °F 102 °F (2002)
Min Temperature 57 °F 51 °F 33 °F (2013)
Cooling Degree Days 6    
Growing Degree Days 20 (Base 50)    
Moisture  
Dew Point 25 °F    
Average Humidity 18    
Maximum Humidity 31    
Minimum Humidity 10    
Precipitation  
Precipitation 0.00 in - - ()
Sea Level Pressure  
Sea Level Pressure 29.82 in    
Wind  
Wind Speed 9 mph (North)    
Max Wind Speed 22 mph    
Max Gust Speed 26 mph    
Visibility 10 miles    
Events      
Averages and records for this station are not official NWS values.
T = Trace of Precipitation, MM = Missing Value Source: NWS Daily Summary

Daily Weather History Graph

Daily Weather History Graph

Search for Another Location

Airport or City:

Trip Planner

Search our weather history database for the weather conditions in past years. The results will help you decide how hot, cold, wet, or windy it might be!

Date:

Astronomy

Apr. 24, 2014 Rise Set
Actual Time 7:14 AM CDT 8:28 PM CDT
Civil Twilight 6:48 AM CDT 8:53 PM CDT
Nautical Twilight 6:18 AM CDT 9:24 PM CDT
Astronomical Twilight 5:46 AM CDT 9:55 PM CDT
Moon 4:08 AM CDT (4/24) 4:03 PM CDT (4/24)
Length of Visible Light 14h 04m
Length of Day
13h 13m
Waning Crescent, 24% of the Moon is Illuminated
Apr 24
Waning Crescent
Apr 29
New
May 6
First Quarter
May 14
Full
May 21
Last Quarter

Hourly Weather History & Observations

Time (CDT) Temp. Dew Point Humidity Pressure Visibility Wind Dir Wind Speed Gust Speed Precip Events Conditions
12:53 AM 68.0 °F 26.1 °F 21% 29.60 in 10.0 mi West 6.9 mph - N/A   Clear
1:53 AM 64.9 °F 28.9 °F 26% 29.62 in 10.0 mi West 9.2 mph - N/A   Clear
2:53 AM 66.9 °F 25.0 °F 21% 29.63 in 10.0 mi West 10.4 mph - N/A   Clear
3:53 AM 64.9 °F 27.0 °F 24% 29.67 in 10.0 mi West 8.1 mph - N/A   Clear
4:53 AM 64.9 °F 26.1 °F 23% 29.69 in 10.0 mi North 8.1 mph - N/A   Clear
5:53 AM 64.9 °F 25.0 °F 22% 29.72 in 10.0 mi North 10.4 mph - N/A   Clear
6:53 AM 57.9 °F 27.0 °F 31% 29.77 in 10.0 mi NNE 4.6 mph - N/A   Clear
7:53 AM 60.1 °F 25.0 °F 26% 29.81 in 10.0 mi North 11.5 mph - N/A   Clear
8:53 AM 66.0 °F 19.9 °F 17% 29.86 in 10.0 mi North 11.5 mph - N/A   Clear
9:53 AM 72.0 °F 12.9 °F 10% 29.88 in 10.0 mi North 21.9 mph 26.5 mph N/A   Clear
10:53 AM 73.0 °F 15.1 °F 11% 29.91 in 10.0 mi North 20.7 mph 26.5 mph N/A   Clear
11:34 AM 73.0 °F 26.1 °F 17% 30.04 in 10.0 mi North 12.7 mph - N/A   Mostly Cloudy
11:53 AM 73.9 °F 28.0 °F 18% 29.94 in 10.0 mi North 13.8 mph 21.9 mph N/A   Overcast
12:53 PM 75.9 °F 28.0 °F 17% 29.93 in 10.0 mi North 18.4 mph 23.0 mph N/A   Overcast
1:34 PM 77.0 °F 28.0 °F 17% 30.03 in 10.0 mi NNE 10.4 mph 16.1 mph N/A   Mostly Cloudy
1:53 PM 75.9 °F 26.1 °F 16% 29.91 in 10.0 mi Variable 5.8 mph 18.4 mph N/A   Partly Cloudy
2:53 PM 79.0 °F 26.1 °F 14% 29.88 in 10.0 mi Variable 5.8 mph - N/A   Clear
3:53 PM 82.0 °F 25.0 °F 12% 29.85 in 10.0 mi Variable 5.8 mph - N/A   Clear
4:53 PM 84.0 °F 23.0 °F 11% 29.83 in 10.0 mi NE 10.4 mph - N/A   Clear
5:53 PM 82.9 °F 19.9 °F 10% 29.81 in 10.0 mi Variable 5.8 mph - N/A   Clear
6:53 PM 82.0 °F 21.0 °F 10% 29.82 in 10.0 mi Variable 4.6 mph - N/A   Clear
7:53 PM 80.1 °F 21.9 °F 12% 29.82 in 10.0 mi East 6.9 mph - N/A   Clear
8:53 PM 73.0 °F 26.1 °F 17% 29.82 in 10.0 mi ESE 9.2 mph - N/A   Clear
9:53 PM 68.0 °F 28.0 °F 22% 29.84 in 10.0 mi ESE 6.9 mph - N/A   Clear
10:53 PM 66.0 °F 27.0 °F 23% 29.85 in 10.0 mi SE 6.9 mph - N/A   Clear
11:53 PM 64.9 °F 28.0 °F 25% 29.85 in 10.0 mi ESE 6.9 mph - N/A   Clear